Home   Weather   Lowell   Past weeks

Flag for USA Past Weather in Lowell, Massachusetts, USA — Yesterday and Last 2 Weeks

Now
58 °F

Sunny.


Feels Like: 56 °F
Forecast: 42 / 63 °F
Wind: 10 mph from Southwest

Location: Hanscom Field

Current Time: Feb 24, 2017 at 10:08:51 am

Latest Report: Feb 24, 2017 at 8:56 am


Visibility: 10 mi

Pressure: 29.96 "Hg

Humidity: 70%

Dew Point: 48 °F

Location of LowellLocation

Past Weather in Lowell — Graph

°F

Lowell Temperature Yesterday

Maximum temperature yesterday: 68 °F (at 2:56 pm)
Minimum temperature yesterday: 32 °F (at 12:56 am)
Average temperature yesterday: 50 °F

High & Low Weather Summary for the Past Weeks

 TemperatureHumidityPressure
High68 °F (Feb 23, 2:56 pm)93% (Feb 24, 1:18 am)30.44 "Hg (Feb 24, 1:18 am)
Low8 °F (Feb 10, 6:56 am)20% (Feb 10, 3:56 pm)29.22 "Hg (Feb 15, 11:27 pm)
Average31 °F66%29.83 "Hg
* Reported Feb 9 8:18 am — Feb 24 8:56 am, Lowell, Weather by CustomWeather, © 2017

Note: Actual official high and low records may vary slightly from our data, if they occured in-between our weather recording intervals... More about our weather records

Advertising

Lowell Weather History for the Previous 24 Hours

Scroll right to see more
 ConditionsComfort  
Time TempWeatherWind HumidityBarometerVisibility
8:56 am
Fri, Feb 24
58 °FSunny.10 mph70%29.96 "Hg10 mi
7:56 am53 °FScattered clouds.6 mph80%29.96 "Hg10 mi
6:56 am48 °FSunny.7 mph89%29.95 "Hg9 mi
5:56 am45 °FFog.No wind90%29.95 "Hg6 mi
4:56 am44 °FMostly cloudy.No wind89%29.95 "Hg7 mi
3:56 am44 °FOvercast.No wind89%29.92 "Hg8 mi
3:04 am42 °FFog.No wind92%29.88 "Hg4 mi
3:01 am42 °FFog.3 mph92%29.88 "Hg1 mi
2:17 am41 °FFog.No wind93%29.88 "Hg1 mi
1:54 am43 °FFog.No wind86%29.92 "Hg0 mi
1:43 am42 °FFog.No wind89%29.89 "Hg1 mi
1:34 am42 °FFog.No wind92%29.89 "Hg0 mi
1:18 am43 °FFog.No wind93%29.88 "Hg1 mi
12:56 am48 °FClear.No wind89%29.91 "Hg10 mi
11:56 pm
Thu, Feb 23
49 °FClear.3 mph86%29.89 "Hg10 mi
10:56 pm52 °FClear.7 mph80%29.88 "Hg10 mi
9:56 pm53 °FClear.8 mph77%29.88 "Hg10 mi
8:56 pm54 °FClear.10 mph77%29.87 "Hg10 mi
7:56 pm55 °FClear.12 mph74%29.84 "Hg10 mi
6:56 pm57 °FClear.8 mph69%29.83 "Hg10 mi
5:56 pm59 °FPassing clouds.9 mph64%29.80 "Hg10 mi
4:56 pm63 °FSunny.14 mph54%29.76 "Hg10 mi
3:56 pm67 °FSunny.16 mph47%29.74 "Hg10 mi
2:56 pm68 °FSunny.10 mph40%29.75 "Hg10 mi
1:56 pm66 °FSunny.13 mph40%29.78 "Hg10 mi
12:56 pm67 °FSunny.14 mph37%29.80 "Hg10 mi
11:56 am65 °FSunny.16 mph42%29.83 "Hg10 mi
10:56 am60 °FSunny.10 mph47%29.85 "Hg10 mi
Weather by CustomWeather, © 2017

See weather overviewHow to use our weather pages